Wind_Speed
28 27 27 27 26 26 25 25 24 24 25 25 26 25 25 24 24 24 25 25 24 25 25 25 26 27 27 26 26 26 27 27 26 25 25 25 24 24 25 27 28 28 29 30 32 33 33 34 34 35 36 37 38 39 40 41 42 42 43 43 44 44 45 45 45 45 43 40 35 27 22 21 20 21 22 23 25 27 30 32 36 39 41 44 46
28 28 27 28 28 27 26 26 26 26 26 26 26 26 25 25 25 26 26 26 26 26 26 26 27 28 28 28 27 27 28 28 27 27 27 27 27 26 27 28 29 30 31 32 33 35 35 35 36 37 38 39 40 41 42 43 44 44 44 44 44 45 46 46 46 46 45 42 38 31 24 22 20 20 20 22 23 26 28 31 34 37 40 43 45
29 27 28 29 29 28 28 28 28 28 28 28 27 27 26 26 27 28 28 27 27 27 27 28 28 29 29 29 29 28 29 29 29 28 28 29 29 28 28 29 30 31 32 34 35 36 38 38 38 39 41 42 43 44 45 46 46 47 47 47 46 46 46 47 47 46 45 43 40 35 28 24 21 20 19 21 22 24 27 30 33 36 39 42 45
29 29 29 29 29 29 30 30 30 30 30 30 28 27 26 27 28 29 29 29 29 29 29 29 30 30 30 30 30 30 30 30 31 31 30 31 32 31 30 30 31 32 34 35 36 38 40 41 41 42 43 44 45 46 47 48 48 48 49 49 49 48 48 48 48 47 45 43 41 37 32 27 24 20 18 19 21 22 25 29 32 36 39 42 45
31 30 30 30 30 31 32 32 32 32 32 31 29 28 28 29 30 30 30 30 30 31 31 31 32 32 32 32 32 32 31 31 32 33 33 32 33 33 33 32 33 34 35 36 38 40 41 43 43 44 45 46 47 48 49 50 50 50 50 50 51 51 50 50 49 48 46 42 40 37 33 29 27 22 18 17 20 21 24 28 32 35 39 41 44
33 33 33 32 32 34 34 34 34 33 32 31 30 30 30 31 31 31 31 31 31 32 32 33 33 34 33 34 34 33 33 33 34 35 34 34 34 35 36 36 35 36 37 38 40 41 43 45 46 46 47 48 49 50 51 51 52 52 52 52 52 53 53 52 50 49 46 41 39 37 34 29 27 23 19 17 19 21 23 27 32 35 39 42 44
36 36 35 34 35 36 36 35 35 34 33 32 32 32 33 33 33 32 32 33 34 34 35 35 36 36 36 36 36 35 34 34 35 36 36 36 36 36 38 39 39 39 39 41 42 44 45 47 48 49 50 50 51 52 53 54 54 55 55 55 55 55 55 53 51 49 46 41 37 36 34 29 26 24 20 18 19 21 23 27 31 35 40 42 44
39 39 38 36 37 38 37 35 34 34 33 33 34 34 34 34 34 34 34 35 36 37 37 37 38 38 38 37 37 36 36 37 37 38 38 37 37 37 39 40 41 42 42 43 45 46 48 49 51 52 52 53 53 54 56 56 57 57 57 56 56 56 56 54 52 49 46 41 37 35 34 30 27 24 21 20 21 22 24 27 31 35 40 43 45
41 41 39 38 39 38 37 35 35 34 34 35 35 35 35 36 36 37 37 37 38 39 39 39 40 39 39 38 38 39 39 40 40 39 39 39 39 39 40 42 43 44 45 46 48 49 50 52 53 55 55 55 56 57 58 59 59 59 59 58 58 58 57 54 52 49 45 41 37 35 33 31 28 26 23 22 23 24 25 28 32 35 40 44 46
42 41 40 39 39 38 37 36 36 36 36 37 37 36 37 37 38 38 38 39 39 39 40 40 40 40 40 40 41 41 42 42 41 41 41 41 41 42 43 44 45 47 48 50 51 52 53 54 56 57 58 58 58 59 60 61 61 61 60 60 59 58 56 54 51 47 43 39 36 34 33 31 30 28 25 24 25 26 27 30 33 36 40 43 46
42 41 41 40 39 39 38 38 37 37 38 38 38 38 38 38 38 39 39 39 39 40 41 41 42 42 42 43 43 43 43 43 43 43 43 43 44 45 46 46 48 49 51 53 54 55 56 57 58 60 61 60 60 60 62 63 63 62 61 60 59 57 55 53 50 45 41 38 35 34 33 31 31 29 26 26 27 28 29 32 35 38 41 44 45
42 42 41 40 40 40 40 39 39 39 39 39 39 39 39 40 41 41 41 41 41 42 43 43 43 44 44 44 45 45 45 45 45 45 46 46 47 48 49 50 51 52 54 55 57 58 59 60 61 62 62 62 61 61 62 63 63 62 60 57 57 55 52 50 47 42 38 37 35 33 33 32 32 31 28 26 28 29 31 33 37 40 43 45 46
44 44 43 43 43 43 42 41 42 43 42 42 42 42 42 43 44 44 44 44 44 45 45 45 45 46 46 47 47 47 48 48 49 49 49 49 49 50 52 53 55 56 57 58 60 61 62 62 63 63 63 62 63 62 62 61 61 59 56 53 52 51 49 48 44 39 36 35 34 33 34 33 32 32 29 27 28 30 32 35 39 42 45 47 48
47 46 46 46 46 46 45 45 45 46 45 45 45 45 46 46 46 46 46 46 47 47 47 47 48 48 49 49 50 50 51 51 52 52 53 53 53 54 55 56 58 60 61 61 62 62 63 63 63 63 62 62 62 61 60 59 57 53 50 49 48 46 45 44 41 36 33 34 33 33 34 34 33 31 29 27 28 30 33 37 41 44 48 50 50
49 48 48 49 49 49 48 47 48 48 47 47 48 48 48 49 49 49 48 48 49 50 50 51 51 52 52 53 53 54 55 55 55 56 56 57 57 58 58 59 60 61 62 62 62 62 62 61 61 60 60 59 59 57 55 54 52 47 44 43 43 42 41 41 39 36 33 33 33 32 34 35 33 32 29 28 29 31 34 38 42 46 51 52 52
52 51 51 52 52 52 51 50 50 51 51 51 51 52 52 52 52 52 52 52 53 53 54 55 55 55 56 57 57 58 58 58 59 60 60 60 60 60 60 59 59 60 60 60 59 58 58 57 55 55 54 53 52 52 50 48 46 43 38 36 36 38 38 37 36 35 33 33 33 32 33 35 34 32 30 29 29 31 35 40 44 49 54 54 54
55 55 55 55 55 55 54 54 54 55 55 56 56 57 56 56 56 56 56 56 57 58 58 58 59 59 60 60 60 60 60 59 60 60 61 60 59 57 56 55 54 54 54 54 53 52 51 50 49 47 47 47 47 48 47 43 41 39 34 30 32 34 34 33 33 33 32 32 33 33 34 35 35 33 32 30 30 33 37 41 46 51 55 55 55
58 58 58 58 57 57 57 57 57 58 58 59 59 59 58 57 57 57 57 58 58 59 59 58 58 58 58 58 58 57 56 56 56 56 55 55 53 51 50 48 47 47 48 48 48 47 46 45 44 43 44 45 45 46 45 41 38 35 31 29 31 33 32 30 30 32 33 32 33 34 34 35 34 34 32 31 33 35 39 43 48 52 55 56 57
56 56 56 55 55 56 55 55 55 55 56 56 55 54 54 53 53 53 53 53 53 53 53 52 52 52 52 52 51 50 50 49 49 49 49 49 48 48 46 45 44 44 44 44 44 44 44 44 44 43 43 44 44 43 42 38 34 31 29 28 31 34 33 29 27 30 33 34 33 33 34 35 35 34 32 33 36 38 41 45 49 53 56 57 59
47 48 48 48 48 48 48 48 48 48 48 48 48 47 47 47 46 46 46 46 46 46 46 46 46 47 47 46 45 45 44 44 43 44 45 45 46 47 45 44 44 44 44 43 43 43 43 43 44 44 44 43 42 40 39 37 32 29 27 28 32 35 34 30 28 29 33 37 36 33 33 35 36 34 33 36 39 41 44 47 50 54 57 59 61
40 41 41 41 41 41 41 41 42 42 42 42 42 42 42 42 41 41 41 42 42 42 42 42 43 43 44 43 43 43 42 42 41 42 43 43 44 45 45 45 45 45 44 44 43 42 42 41 42 43 43 43 41 38 36 34 29 25 25 28 33 37 36 33 31 30 33 38 39 36 34 35 35 35 35 38 42 45 47 50 52 55 58 60 63
38 38 38 37 37 38 38 38 38 39 39 39 39 39 39 39 38 38 39 39 40 40 40 40 40 41 41 42 42 42 41 40 40 41 43 44 44 45 45 45 47 46 45 44 43 42 42 41 41 41 40 40 40 37 33 28 23 22 25 28 32 36 38 38 35 33 34 37 38 37 36 35 35 36 36 39 44 48 50 52 55 57 59 62 65
37 37 37 36 36 37 37 37 38 38 38 38 38 38 38 38 38 38 38 38 39 39 39 39 39 40 41 42 42 42 42 41 41 42 45 46 46 46 46 47 48 48 45 44 43 42 41 40 41 41 40 38 38 37 31 24 21 25 30 33 35 36 39 40 39 38 37 36 35 36 36 36 36 36 36 39 44 49 52 54 56 59 61 64 66
37 37 37 38 38 37 38 38 38 38 39 39 39 39 39 38 38 38 38 37 37 38 39 40 42 43 44 43 43 43 43 43 43 44 46 48 48 48 48 48 49 49 47 47 46 43 40 39 39 39 40 39 38 39 36 30 30 35 37 39 40 40 38 40 41 40 39 36 35 36 37 37 38 38 38 40 43 47 50 54 56 59 63 65 65
39 39 39 40 39 39 40 40 40 40 40 40 40 40 40 40 39 39 39 40 40 41 42 44 45 45 45 45 45 45 45 45 46 47 48 49 49 48 49 49 49 50 49 48 49 46 42 37 34 34 37 39 39 41 41 38 37 37 38 40 43 42 39 37 39 40 39 39 40 40 41 42 41 39 38 39 41 45 49 53 56 59 62 65 66
42 42 42 42 42 42 42 42 43 43 43 43 43 43 42 42 42 42 43 44 44 44 45 46 46 46 46 47 47 47 48 48 49 49 49 48 49 50 50 50 51 50 49 49 50 49 43 36 32 31 33 35 36 39 40 37 33 31 32 36 39 37 35 34 35 38 40 43 46 47 47 44 41 38 38 39 41 45 50 54 57 60 63 65 66
46 46 46 46 46 46 46 46 46 46 46 45 45 45 45 45 45 45 46 46 46 47 47 47 47 47 48 48 48 49 50 51 52 52 50 48 50 52 52 51 52 52 51 51 52 50 45 39 35 32 30 32 36 39 41 41 40 39 40 41 40 38 38 40 41 41 43 46 48 49 48 45 42 41 42 42 44 48 53 56 58 61 64 66 68
49 49 49 49 49 49 49 50 50 50 50 49 48 48 48 48 48 48 48 48 48 49 49 49 49 49 50 50 50 51 52 53 54 54 52 50 51 52 52 52 52 52 52 53 54 52 47 41 37 33 33 36 42 46 51 56 58 56 53 50 47 46 48 49 48 49 50 50 49 48 46 46 48 49 50 52 53 55 56 58 60 63 66 68 70
51 52 52 52 52 53 53 53 53 53 53 52 52 52 51 51 51 51 50 51 51 50 51 51 51 52 52 53 53 54 55 56 57 56 54 51 50 51 52 52 53 52 52 55 56 52 45 40 38 37 39 41 43 44 48 54 58 59 58 54 51 50 52 52 51 51 52 51 50 47 44 46 50 55 58 61 63 61 59 60 61 63 66 69 69
54 54 54 54 55 55 55 56 56 56 56 55 55 55 54 54 54 54 54 54 53 53 53 53 53 54 55 56 56 56 56 58 58 58 57 55 53 52 53 53 53 52 53 55 55 49 43 40 39 39 39 39 37 36 37 40 45 51 55 54 53 53 54 55 55 53 50 49 48 44 43 48 53 55 59 63 65 63 60 60 62 64 66 68 69
56 56 56 57 57 58 58 58 58 58 58 58 58 58 58 58 58 58 57 57 56 56 56 56 56 57 57 58 59 59 59 59 60 60 59 58 57 57 57 56 54 53 53 55 54 50 48 45 41 37 35 33 33 32 31 33 38 44 48 52 55 55 54 55 57 54 49 49 50 46 44 48 52 51 54 60 61 58 58 59 61 64 66 67 68
59 59 59 59 60 60 60 60 60 60 60 60 61 61 61 61 61 61 61 61 60 60 60 60 60 60 60 60 61 62 61 61 61 61 61 60 60 60 61 60 58 54 52 53 53 52 52 49 42 36 33 33 33 30 27 32 43 49 51 52 52 50 52 57 58 54 49 49 50 47 45 49 51 51 54 58 57 55 56 59 62 65 66 67 69
61 62 62 62 62 62 62 63 63 63 63 64 64 64 64 64 64 65 64 64 64 64 64 64 64 64 64 63 64 65 65 65 64 64 64 63 62 61 62 63 62 58 53 51 53 53 51 48 42 38 36 34 33 32 34 43 54 58 58 57 53 51 54 58 56 52 49 45 44 45 48 53 57 56 56 57 56 55 57 60 63 65 66 67 70
64 64 65 65 65 65 65 66 66 66 67 67 67 67 67 67 67 67 67 67 67 68 68 68 68 68 67 66 67 67 68 68 68 68 68 66 65 65 65 65 66 63 55 52 53 53 49 45 43 43 42 38 37 38 43 51 57 55 55 60 59 56 56 55 51 48 45 42 43 48 52 56 59 58 56 56 56 57 59 62 64 65 66 68 71
67 67 68 68 68 68 68 68 69 69 69 69 69 69 69 69 69 69 70 70 71 71 71 71 71 71 70 70 69 69 68 68 68 68 68 67 66 66 66 66 67 66 59 53 53 54 51 48 47 48 45 42 42 43 44 48 52 48 44 49 55 55 54 53 51 50 49 47 50 54 56 58 60 60 58 58 60 60 61 62 62 63 66 69 71
70 70 71 71 71 71 71 72 72 72 72 72 72 72 72 71 71 72 72 74 75 75 74 74 74 74 74 74 72 69 67 65 63 62 62 61 60 61 62 63 65 66 60 53 54 57 56 54 54 51 46 42 41 41 39 40 42 44 43 45 49 54 57 55 52 53 56 55 53 55 58 60 61 61 61 62 63 63 62 61 60 63 67 69 70
73 73 73 74 74 74 74 74 75 75 75 75 74 74 74 74 74 75 76 78 78 77 76 75 74 74 74 73 71 68 65 64 62 59 57 56 56 59 61 62 63 63 58 53 54 59 59 58 57 53 46 41 38 34 30 29 32 38 44 47 47 49 53 54 52 53 56 55 54 56 60 62 62 63 64 66 66 66 63 61 60 62 66 68 70
75 75 75 75 75 75 76 76 77 77 77 77 77 76 76 77 77 78 79 80 80 78 75 73 70 68 68 68 67 66 65 65 64 62 59 58 59 63 66 64 61 59 55 53 56 60 60 59 59 55 46 38 32 27 24 24 29 38 46 49 48 48 50 53 54 53 52 52 54 57 60 62 63 64 66 68 68 67 64 62 61 62 64 67 69
77 77 77 77 77 78 78 78 79 79 79 79 79 79 79 79 80 80 81 81 80 77 73 69 65 63 63 63 63 62 63 64 63 62 60 61 62 66 68 66 61 56 52 52 57 62 60 57 57 52 43 34 29 26 26 29 34 40 45 47 49 51 52 54 57 56 52 50 52 55 57 60 62 64 66 68 68 66 65 64 63 63 65 68 69
80 80 80 80 80 80 80 80 81 82 81 81 80 80 81 80 80 80 80 80 78 75 71 68 64 63 63 64 63 64 64 63 62 60 60 62 64 65 66 66 62 56 51 51 57 61 59 56 52 46 38 32 30 31 33 34 35 39 42 43 46 52 55 57 59 57 52 51 53 53 54 57 60 63 66 67 66 65 66 67 66 65 67 69 69
82 82 82 82 81 81 82 83 84 84 83 82 82 82 81 80 79 78 77 76 76 74 72 69 67 66 65 65 65 66 66 63 61 60 61 63 64 63 63 63 62 56 51 52 57 60 57 53 50 44 37 32 32 35 38 39 38 37 36 33 36 44 50 52 54 53 53 54 55 54 55 56 57 60 62 62 62 64 67 68 68 68 68 68 68
84 83 83 82 82 83 85 87 87 86 85 84 82 81 79 77 76 76 76 75 75 75 74 72 71 69 68 67 67 67 66 64 63 63 63 63 63 62 61 61 59 54 50 51 57 60 56 52 51 47 38 28 23 25 28 30 32 38 40 39 40 44 49 52 54 54 55 57 57 58 58 57 55 56 57 59 61 64 67 68 68 68 68 68 69
83 83 83 84 85 86 87 88 87 84 82 81 79 78 77 76 76 77 78 78 78 78 77 76 74 73 73 72 70 69 68 68 67 65 64 63 63 63 61 59 57 52 49 50 55 59 58 54 51 48 41 31 21 17 17 18 26 38 49 54 55 54 54 55 55 55 57 59 60 60 60 58 55 54 56 59 63 65 66 67 68 68 68 69 69
83 83 83 84 85 85 84 82 80 78 77 76 76 75 75 74 75 77 80 81 80 80 80 79 79 78 78 76 74 73 72 72 70 67 65 65 64 63 62 58 55 50 48 49 53 58 60 57 51 48 44 37 31 30 31 33 40 50 58 63 64 63 61 60 58 58 59 60 61 62 62 59 57 55 57 60 63 64 66 67 68 69 69 69 70
83 83 82 81 81 81 80 78 77 77 77 77 77 77 75 75 77 79 82 82 82 82 83 82 82 83 82 80 79 77 75 73 72 70 68 67 65 64 62 59 55 50 47 47 50 55 60 60 57 52 48 45 43 44 45 45 50 58 65 68 69 68 66 64 62 61 61 61 63 64 64 62 60 59 60 62 64 65 67 69 69 70 70 71 72
80 81 82 82 83 82 81 80 80 81 81 81 82 81 81 81 83 84 85 85 84 84 84 84 85 85 85 84 83 81 78 75 73 72 70 69 67 64 62 59 56 52 49 47 48 51 57 62 63 60 57 56 57 57 56 55 58 64 69 71 71 70 70 68 67 65 64 64 65 66 65 63 62 62 63 65 66 68 69 70 71 71 72 74 75
81 82 84 86 86 86 86 85 85 86 86 86 86 86 86 86 87 87 87 86 86 86 86 86 86 86 86 87 86 83 80 77 75 74 72 71 68 65 62 60 57 54 51 50 49 49 52 59 64 65 65 64 65 67 67 67 69 72 74 74 73 73 73 72 71 68 67 66 67 67 66 65 64 65 66 68 69 69 70 71 72 73 74 75 76
81 82 84 86 87 87 88 88 88 88 88 88 88 88 89 90 90 89 88 88 87 87 87 87 87 87 88 88 87 84 81 79 78 77 76 73 70 66 63 60 58 55 53 51 51 50 50 53 60 65 68 68 67 68 69 71 73 75 76 77 76 76 75 74 72 71 71 71 70 70 69 68 67 68 69 70 70 71 72 73 74 75 76 76 77
82 82 83 84 85 86 87 88 87 87 87 88 88 89 90 90 90 89 89 88 88 88 88 88 88 89 88 88 87 85 84 82 81 80 77 74 70 66 64 61 59 57 55 53 53 53 52 51 54 59 66 69 69 68 68 69 70 72 73 74 75 75 74 72 71 70 70 70 70 70 69 69 69 69 70 72 73 74 76 76 77 77 77 77 77
83 82 82 82 83 83 84 84 83 83 84 86 87 88 89 89 89 89 89 89 89 89 89 89 89 89 88 88 87 87 87 86 85 82 78 73 69 66 65 63 61 60 59 57 55 54 55 54 53 54 58 64 68 69 69 68 68 69 69 70 70 70 70 70 69 69 69 69 68 68 69 70 71 73 74 76 77 77 77 77 77 77 76 75 74
87 87 86 85 84 83 82 82 83 84 85 86 87 87 88 89 90 90 91 91 91 91 91 91 91 90 90 90 89 89 90 90 88 84 80 76 72 71 69 68 67 65 64 62 61 59 58 58 57 56 55 57 61 65 67 68 68 68 68 68 68 69 69 70 71 71 71 72 72 73 74 74 75 76 76 76 76 76 75 75 74 74 73 73 73
Wind_Direction
225 227 229 232 235 238 240 242 244 245 248 251 254 258 261 264 268 270 270 271 273 275 277 279 283 287 290 293 295 297 299 301 301 302 306 311 315 317 317 318 319 318 317 317 319 321 323 325 327 328 328 330 331 332 333 334 335 335 336 338 339 340 340 339 340 340 339 339 339 334 324 323 330 336 343 348 350 354 359 5 8 10 10 10 9
227 228 230 232 234 237 239 241 242 244 247 250 253 257 260 263 266 268 268 269 271 273 275 278 281 285 288 290 292 294 295 296 297 299 303 306 310 313 315 316 317 317 315 315 316 318 319 322 324 325 325 327 328 328 329 331 332 332 333 334 335 336 337 337 337 337 336 334 335 333 324 316 318 325 335 343 345 347 354 0 4 7 8 7 6
231 232 233 235 235 237 239 241 243 245 247 249 251 253 257 260 262 264 266 268 270 272 275 278 280 283 285 287 289 290 292 293 294 297 300 303 306 309 313 314 315 315 314 314 314 315 317 319 321 322 322 323 324 325 326 327 328 329 330 331 332 333 334 334 334 334 334 331 330 330 325 315 310 313 324 335 339 342 349 356 1 3 5 4 3
233 235 236 238 239 241 242 243 245 246 247 248 249 250 253 255 257 260 264 267 270 273 275 276 278 281 283 285 286 288 290 291 293 295 297 300 303 307 310 311 312 312 311 311 313 314 315 316 318 319 320 320 321 322 323 324 325 326 327 328 329 330 331 331 331 331 331 329 326 325 324 317 308 304 314 328 334 338 346 353 358 0 1 1 0
234 236 238 240 242 243 244 245 246 246 248 249 250 250 252 253 255 258 262 266 270 272 274 276 278 279 281 283 284 286 288 289 290 292 295 299 302 304 307 308 309 309 309 309 311 312 313 314 315 316 317 317 318 319 320 321 322 323 324 325 326 327 328 328 328 328 329 327 323 321 321 317 308 303 309 323 330 334 343 350 354 356 357 357 357
234 236 237 239 242 244 245 246 247 248 249 251 251 251 252 254 256 259 262 265 268 271 273 275 276 278 279 281 282 284 286 287 289 291 294 298 301 302 304 305 306 306 307 308 309 310 310 311 313 313 314 314 315 316 317 318 319 320 321 323 324 324 325 326 326 325 326 325 321 318 319 316 308 302 305 315 324 331 340 346 349 352 353 353 353
234 236 237 238 241 243 244 246 248 250 251 252 253 252 253 255 257 260 263 265 268 270 272 274 275 276 278 280 283 284 285 286 288 291 294 297 299 301 301 302 303 304 306 307 307 307 308 309 310 310 311 312 313 314 315 315 316 317 319 320 321 322 323 323 323 323 323 321 318 315 316 313 307 302 301 307 317 327 337 344 346 348 350 350 349
235 237 238 239 240 242 244 246 248 250 252 253 253 254 255 258 260 262 264 266 268 271 272 274 275 277 279 281 283 284 285 287 289 291 294 296 298 299 300 301 302 303 304 305 305 305 306 307 308 308 309 310 311 312 312 313 314 315 317 319 320 320 321 321 322 321 320 317 314 312 312 311 307 302 297 300 310 321 332 340 344 346 348 347 346
236 239 240 241 242 243 245 246 248 250 252 253 255 257 258 260 261 263 265 267 270 272 274 276 277 278 280 282 283 285 286 287 289 291 293 295 296 297 298 299 301 302 302 302 302 303 304 305 306 306 308 309 309 310 310 311 312 313 315 317 318 318 319 319 319 319 316 313 311 309 308 308 306 301 294 294 304 317 327 335 341 345 346 345 343
240 242 243 244 245 247 248 250 251 252 254 255 257 259 260 261 263 265 267 269 271 273 275 276 278 280 282 283 284 285 287 288 290 291 293 294 294 296 296 297 298 299 300 300 301 302 303 304 304 305 305 306 307 307 308 309 310 312 314 316 316 316 316 316 317 316 313 310 307 305 304 304 303 299 291 288 299 312 322 330 336 340 342 342 341
245 246 247 248 250 251 252 253 254 255 256 257 258 260 262 263 265 266 267 269 271 273 274 276 278 280 281 283 284 285 286 288 289 290 291 292 293 294 295 295 296 296 297 298 300 301 302 302 302 302 303 303 304 305 306 308 309 311 313 315 314 314 314 314 314 313 310 307 304 301 300 301 301 299 290 284 294 307 317 325 331 334 336 338 339
248 249 251 252 252 253 254 255 256 257 258 258 259 261 263 264 265 266 268 270 271 272 273 275 277 279 280 281 283 284 285 287 288 289 290 291 292 293 293 294 294 295 296 297 298 299 299 300 300 300 300 302 303 304 306 307 308 310 312 313 311 312 313 312 312 311 306 303 301 298 298 299 299 299 292 284 290 302 311 319 325 327 330 335 338
248 249 251 252 253 253 254 255 257 258 258 260 261 262 263 264 266 267 269 270 271 272 274 275 277 278 279 281 282 283 284 286 286 287 288 288 290 290 291 292 293 293 294 295 295 296 297 297 298 298 299 301 302 303 305 305 306 308 310 310 309 310 311 310 309 307 302 299 297 295 296 297 298 298 293 285 288 298 307 315 319 322 326 332 336
247 249 250 252 253 254 254 255 256 257 259 261 262 263 264 265 266 267 268 270 271 272 274 275 277 278 279 280 281 282 283 284 285 286 287 287 288 288 289 290 291 292 293 293 294 294 295 296 297 298 299 301 301 303 304 304 305 307 308 307 307 308 307 306 305 303 299 295 294 293 293 294 296 297 292 286 288 297 306 312 315 319 324 329 334
248 249 250 252 254 255 256 257 258 259 261 262 263 265 266 267 268 268 269 271 272 273 274 274 275 276 277 279 280 281 282 283 284 285 285 286 286 287 288 288 290 291 291 292 293 293 294 296 297 299 300 301 302 303 303 302 304 306 306 305 305 304 303 303 302 301 296 292 291 290 290 292 295 295 291 287 290 297 305 309 312 317 322 326 332
249 250 251 253 255 256 258 259 260 261 262 263 264 265 266 267 268 269 270 271 272 272 273 274 275 276 277 278 279 280 281 282 283 283 284 284 285 286 288 288 289 290 290 291 292 294 296 298 299 300 301 301 302 302 302 302 303 305 304 302 299 298 299 300 300 298 295 292 290 289 288 290 293 294 292 289 290 297 304 308 312 317 321 324 330
250 251 253 254 256 258 259 260 261 262 263 264 264 265 266 268 269 270 271 271 272 272 273 274 275 276 277 277 278 280 281 281 282 283 284 285 286 287 288 288 288 289 290 292 294 296 298 299 300 300 300 301 301 300 301 303 303 303 301 297 293 293 295 297 298 294 292 291 291 290 288 288 291 294 292 289 291 298 304 309 314 318 321 324 327
252 253 255 256 258 259 260 261 262 263 264 265 266 267 268 269 270 271 271 271 272 273 274 275 276 277 278 279 280 282 282 283 284 286 286 287 288 288 288 288 289 290 291 293 296 297 299 299 300 300 300 300 301 301 301 302 302 301 298 293 291 290 290 293 295 291 289 290 291 291 289 289 291 292 291 289 292 299 306 311 316 319 322 324 326
253 255 256 257 258 259 260 261 262 263 264 266 267 268 269 270 270 271 272 273 274 275 276 277 277 278 280 281 282 283 284 286 287 288 289 290 290 290 289 290 290 290 291 293 295 296 297 299 300 300 300 300 301 302 301 300 299 299 296 291 288 286 285 286 288 288 289 291 292 291 291 290 291 292 290 288 293 300 306 311 316 320 323 325 326
252 254 255 255 256 258 259 261 262 263 265 266 267 268 269 270 271 272 273 275 276 277 278 279 280 280 281 282 283 284 285 286 287 288 289 289 290 290 291 292 291 291 291 292 293 294 296 297 298 299 300 300 300 301 300 296 296 298 295 288 286 288 287 284 284 287 289 290 293 295 292 289 291 292 291 291 295 302 306 310 315 320 322 324 325
250 251 252 253 254 256 258 259 261 262 263 265 266 267 268 269 270 272 273 274 276 277 278 278 279 279 281 282 282 283 285 286 286 287 287 287 288 289 290 291 290 290 291 292 294 295 296 295 294 296 298 298 298 298 295 291 294 302 301 294 291 291 290 286 285 288 289 288 293 297 294 290 292 295 296 297 300 304 307 310 314 319 321 322 324
249 250 252 253 254 255 256 257 259 260 262 263 264 266 267 268 269 271 272 273 274 275 276 277 278 279 281 283 284 285 287 288 289 289 290 290 290 291 292 291 290 289 290 292 294 296 295 294 292 292 293 294 293 292 289 287 293 305 307 305 301 296 291 286 286 290 290 288 291 296 296 293 295 298 301 303 305 306 308 312 314 317 321 322 324
252 254 255 256 256 257 258 259 260 261 263 264 266 267 269 270 272 272 273 274 275 276 278 278 280 282 284 285 287 288 289 291 291 291 291 292 293 293 294 294 292 291 291 292 293 293 293 292 291 291 292 291 289 288 288 288 295 302 303 305 305 300 292 285 283 288 291 289 289 293 297 297 297 300 302 304 307 308 310 313 315 316 319 322 323
256 256 257 258 259 260 261 263 264 265 267 268 269 271 272 273 274 274 274 275 276 277 278 278 280 283 286 286 287 289 290 291 291 290 291 291 292 294 295 295 295 294 294 295 294 292 289 288 289 290 291 290 289 287 285 284 289 295 297 297 300 301 295 284 281 286 290 288 285 289 295 296 295 297 298 301 305 309 311 314 316 316 318 320 321
257 257 258 259 260 261 263 265 266 267 268 270 271 272 273 274 274 273 273 274 275 276 278 279 281 284 286 286 288 289 290 290 289 289 290 290 292 294 295 295 296 295 296 296 295 292 290 287 284 285 288 289 290 290 289 288 291 294 293 291 292 296 295 286 281 286 292 291 288 288 293 295 292 292 296 299 302 307 312 315 316 316 317 318 319
256 257 258 259 261 262 263 264 265 267 268 269 270 271 272 273 273 273 274 275 276 277 278 280 282 284 285 286 288 289 289 289 289 289 290 291 293 294 295 296 295 295 295 296 294 292 290 286 283 285 288 289 291 290 289 290 294 298 299 297 293 291 291 290 289 290 294 298 296 292 292 294 289 287 293 297 298 303 309 313 315 315 316 316 317
255 256 257 259 260 262 263 263 264 265 266 267 268 270 270 271 272 274 275 276 277 278 279 280 282 283 284 285 286 287 288 288 289 289 291 293 294 294 296 296 296 296 297 297 294 291 290 288 286 287 288 288 289 286 284 287 290 290 292 295 293 288 287 290 292 291 291 296 299 295 291 288 284 283 289 295 297 300 305 308 311 313 313 314 316
255 256 257 259 260 261 262 263 264 265 266 267 268 269 270 271 272 273 274 275 276 277 278 280 282 282 283 283 284 285 286 286 287 289 291 293 293 293 295 296 297 297 297 296 292 289 288 288 288 287 285 286 287 288 289 292 292 289 288 289 288 285 284 287 290 292 291 292 297 298 291 280 275 278 286 293 296 297 300 303 306 308 309 311 313
256 257 258 259 261 262 263 264 265 266 268 269 270 271 272 273 274 274 275 275 276 277 279 280 281 281 281 282 283 284 285 285 287 289 291 292 293 293 294 295 295 295 295 292 288 286 285 286 286 286 286 289 293 297 300 300 297 294 294 295 291 286 286 287 289 292 294 293 297 299 290 278 275 277 282 288 292 293 294 298 302 303 305 308 311
258 259 260 261 262 262 264 265 266 268 269 270 271 272 273 274 275 276 276 277 278 278 279 279 279 280 281 282 283 284 285 286 287 290 292 293 294 293 293 294 293 294 293 291 288 286 285 286 286 287 289 293 299 304 307 307 305 303 301 301 298 294 293 293 291 291 291 292 293 291 282 279 282 281 278 283 288 289 290 294 297 300 302 305 307
260 261 262 263 264 265 266 267 268 269 271 271 272 273 274 275 275 276 277 278 278 279 279 279 279 280 281 282 283 284 285 286 287 289 290 292 293 293 293 293 293 292 292 290 288 288 288 287 287 286 287 293 302 305 305 309 313 312 309 306 303 299 299 301 299 293 288 287 287 282 276 281 286 282 277 280 286 287 287 290 294 297 299 302 304
262 263 264 265 266 267 268 269 271 271 272 273 274 275 275 276 276 277 278 278 279 280 280 281 281 282 282 283 284 285 286 287 287 288 289 290 290 291 291 292 292 291 290 288 286 286 286 286 285 282 283 293 302 303 301 304 306 304 303 305 305 301 298 301 300 295 287 283 281 275 274 282 287 283 279 282 285 285 286 289 292 296 298 300 301
263 264 265 266 268 269 270 271 272 274 274 275 276 277 277 278 278 279 279 280 280 281 281 282 282 283 284 286 287 288 288 288 288 288 288 288 289 289 290 290 290 291 290 286 283 282 282 281 280 278 279 287 295 296 292 291 289 286 283 285 293 298 297 295 295 292 287 280 272 268 273 281 286 285 283 283 284 284 286 290 293 296 298 299 299
263 265 266 267 269 270 271 273 274 275 276 277 278 278 279 279 279 280 280 281 281 281 282 282 283 284 286 287 288 290 290 289 288 287 286 287 288 289 289 289 290 290 290 287 283 281 279 277 275 275 280 288 298 302 296 287 283 280 273 268 274 286 290 285 283 283 280 272 264 265 272 279 283 285 285 284 284 285 288 290 293 295 295 295 295
263 265 266 268 269 271 272 274 275 276 277 277 278 278 279 279 280 280 281 281 281 281 282 283 285 286 287 288 289 290 291 291 289 288 287 287 288 289 289 290 289 289 288 285 281 280 279 276 274 276 283 291 298 301 296 286 282 284 279 266 265 273 276 272 269 268 264 261 262 265 270 278 283 284 284 284 285 286 287 288 290 291 291 291 292
264 265 266 268 270 271 273 274 274 275 276 276 277 277 278 278 279 280 280 280 281 282 283 285 286 287 288 288 289 290 291 291 290 289 287 286 287 288 288 289 288 287 285 281 278 277 276 275 274 277 283 291 297 298 294 285 279 283 285 277 269 269 271 270 267 258 253 257 264 268 272 278 282 283 283 283 284 284 284 286 288 289 288 289 291
265 266 267 269 270 271 273 273 274 275 275 275 276 277 277 278 278 279 280 280 281 283 285 286 287 288 288 288 288 288 288 289 289 289 288 286 285 287 288 288 287 284 281 276 272 271 271 272 274 276 280 287 291 287 281 274 267 266 272 274 270 266 267 266 262 255 252 258 267 273 276 279 282 283 283 283 282 282 284 287 289 288 287 288 291
265 267 268 269 270 271 272 273 273 274 274 275 276 276 277 278 278 279 280 281 282 284 285 287 288 289 288 288 288 287 288 288 288 288 288 286 286 287 289 289 287 282 277 270 266 266 267 268 271 275 277 279 277 266 262 275 274 263 260 261 259 256 257 257 255 253 256 262 270 278 281 282 284 285 284 282 281 282 284 287 287 287 288 290 293
266 267 268 269 270 271 271 272 273 273 273 274 276 277 277 278 278 279 280 281 282 284 285 286 288 289 289 290 290 290 290 291 289 288 289 288 288 289 290 290 286 278 271 265 263 264 265 265 267 270 270 269 269 264 265 280 284 270 258 253 250 247 249 253 253 252 257 268 279 284 286 285 285 285 283 282 281 281 283 285 286 287 290 292 295
266 267 268 269 270 271 272 272 272 272 273 275 276 277 278 279 279 279 279 280 281 283 284 286 287 288 288 289 289 290 292 292 291 290 291 291 291 290 291 290 286 277 267 261 260 262 264 265 263 261 259 266 278 276 265 265 270 268 262 259 256 252 251 251 249 251 261 276 284 287 289 288 285 283 282 282 281 282 283 284 285 287 291 293 295
266 267 268 270 271 271 271 271 272 273 274 276 276 278 279 279 278 277 277 277 279 281 283 285 288 288 288 289 289 290 291 292 291 291 293 293 292 290 290 291 288 277 265 258 258 259 261 262 262 260 262 272 285 283 271 264 265 268 265 258 254 255 258 256 254 260 271 279 281 283 287 288 286 284 283 283 283 284 284 284 285 288 291 293 294
266 268 269 269 270 270 270 271 272 274 275 276 276 277 277 276 275 275 276 277 279 281 283 286 287 288 288 289 290 291 291 291 291 291 293 294 293 290 290 292 289 278 263 256 256 258 258 258 259 260 259 259 268 280 280 274 269 270 268 258 249 255 267 270 269 271 276 277 278 280 283 284 285 285 284 284 283 283 283 283 285 288 290 291 292
266 267 268 269 269 269 270 272 273 274 275 275 275 275 274 274 275 275 276 278 280 282 284 286 287 287 288 289 290 290 291 291 291 292 293 295 295 292 291 292 290 281 265 254 254 256 255 254 255 255 249 238 232 245 258 249 241 249 257 256 253 258 269 274 273 274 276 276 277 279 280 282 284 285 284 284 283 283 283 283 285 286 287 289 290
265 266 268 269 269 270 271 272 272 272 272 272 272 273 274 275 276 276 278 280 281 283 284 285 286 287 288 288 289 290 292 292 292 292 293 295 296 294 292 291 291 285 272 258 252 253 252 250 249 249 243 230 218 218 224 223 224 234 247 253 255 260 268 272 272 273 275 275 276 278 280 281 283 282 282 282 282 281 281 282 282 283 285 287 289
263 264 265 266 266 267 268 269 268 269 269 269 270 271 273 274 274 276 278 280 282 283 285 285 286 287 288 289 290 292 293 293 293 293 293 296 297 295 292 291 290 287 278 265 255 252 251 249 247 244 237 226 217 219 228 232 234 240 249 254 257 261 265 268 270 272 273 274 275 277 278 280 280 279 279 278 278 279 279 280 280 282 284 287 289
263 263 263 263 264 265 266 267 267 268 269 269 269 270 271 272 274 276 278 280 282 283 284 285 286 287 289 290 292 293 293 293 293 293 294 297 298 296 293 291 289 287 283 274 261 253 250 250 249 247 241 233 229 230 236 239 241 246 251 255 258 262 265 267 269 271 271 272 273 275 277 278 278 276 276 276 276 277 278 278 280 282 285 287 289
264 263 263 263 264 265 266 267 268 269 270 270 270 270 272 273 275 277 278 280 281 282 283 284 286 287 289 290 292 292 292 292 293 293 295 298 299 297 295 292 290 287 285 281 272 260 252 249 250 251 250 247 244 243 243 243 245 248 252 256 259 262 264 266 268 269 269 269 271 273 274 275 275 274 274 275 275 276 276 278 280 283 284 286 287
264 264 263 264 265 266 267 269 270 271 271 272 272 273 274 275 277 278 279 280 281 282 283 284 285 287 288 289 290 290 291 291 292 294 296 298 299 298 296 294 290 287 285 284 280 272 262 253 250 251 253 254 254 253 252 252 252 253 255 257 258 260 262 265 266 267 267 268 270 271 272 273 272 272 273 273 274 275 277 279 281 282 284 285 286
263 263 264 265 266 267 268 270 271 272 272 273 274 274 275 277 278 279 280 281 281 282 283 284 285 286 287 287 288 289 290 291 292 294 295 297 298 299 298 295 291 287 284 283 282 280 275 266 258 254 253 255 256 257 257 257 257 257 258 258 259 260 262 263 264 264 265 267 268 268 269 270 270 270 271 272 274 276 278 280 281 282 283 284 285
260 261 263 264 265 266 268 269 270 271 272 273 274 274 275 277 278 279 280 281 282 282 283 284 285 285 286 286 287 288 289 291 292 293 294 295 297 298 298 297 294 289 285 282 281 281 279 276 271 264 259 258 258 258 259 259 259 259 259 259 259 259 259 260 260 261 263 264 265 266 267 268 269 271 272 274 275 277 278 279 280 281 281 282 282
258 260 261 262 263 264 266 267 268 269 270 271 272 273 274 276 277 278 279 280 281 281 282 283 283 284 285 285 286 288 289 290 292 293 294 295 297 298 298 297 296 294 290 285 281 279 278 276 275 272 268 264 262 261 261 261 260 260 260 260 259 259 258 258 259 260 262 264 265 266 267 269 270 272 273 274 275 276 276 277 277 277 277 277 278
Height
10977 10979 10980 10982 10983 10984 10986 10987 10988 10989 10990 10991 10991 10992 10993 10993 10994 10994 10994 10994 10994 10994 10995 10995 10995 10994 10995 10995 10995 10995 10994 10994 10993 10993 10992 10992 10992 10991 10990 10988 10987 10985 10983 10981 10979 10977 10976 10975 10974 10972 10970 10969 10967 10965 10963 10961 10959 10957 10955 10953 10950 10948 10946 10943 10941 10938 10936 10934 10932 10930 10928 10926 10925 10923 10921 10919 10917 10915 10913 10910 10907 10904 10901 10898 10896
10974 10976 10978 10979 10980 10981 10983 10984 10985 10986 10987 10988 10989 10990 10991 10991 10991 10991 10991 10991 10991 10991 10992 10992 10992 10992 10992 10992 10993 10992 10992 10991 10990 10990 10990 10989 10989 10989 10988 10986 10984 10982 10980 10979 10976 10974 10973 10972 10971 10969 10967 10965 10964 10962 10960 10958 10956 10954 10952 10950 10948 10946 10943 10941 10938 10935 10932 10930 10928 10927 10926 10924 10922 10921 10919 10917 10915 10914 10911 10909 10906 10903 10900 10898 10895
10972 10974 10975 10976 10977 10979 10979 10980 10981 10982 10983 10984 10986 10987 10988 10988 10988 10988 10988 10988 10988 10989 10989 10989 10989 10989 10989 10989 10989 10989 10989 10988 10987 10987 10987 10987 10986 10986 10985 10984 10982 10980 10978 10976 10974 10972 10970 10969 10968 10966 10963 10962 10960 10958 10956 10954 10953 10950 10948 10946 10944 10942 10940 10938 10935 10933 10930 10927 10924 10923 10922 10920 10919 10917 10916 10915 10913 10912 10909 10907 10904 10902 10899 10896 10894
10970 10972 10972 10973 10975 10976 10976 10976 10977 10978 10979 10980 10982 10984 10984 10984 10984 10984 10984 10985 10985 10986 10986 10986 10986 10986 10986 10986 10986 10986 10986 10985 10984 10984 10984 10984 10983 10982 10982 10981 10979 10977 10975 10973 10971 10969 10967 10965 10964 10963 10960 10958 10956 10954 10953 10951 10949 10947 10945 10943 10940 10938 10937 10934 10932 10930 10927 10924 10921 10919 10918 10916 10915 10913 10913 10912 10911 10909 10907 10905 10902 10900 10897 10894 10892
10968 10969 10970 10971 10972 10972 10972 10973 10974 10975 10976 10977 10979 10980 10980 10980 10980 10980 10981 10982 10982 10983 10983 10983 10983 10983 10983 10983 10983 10983 10983 10982 10981 10981 10981 10981 10980 10978 10978 10977 10976 10974 10972 10970 10968 10966 10964 10962 10960 10959 10957 10955 10953 10951 10949 10947 10945 10943 10941 10939 10937 10934 10932 10930 10928 10926 10924 10921 10918 10915 10913 10912 10910 10909 10909 10908 10907 10906 10904 10901 10899 10897 10894 10891 10889
10964 10965 10966 10968 10968 10968 10969 10969 10970 10972 10973 10975 10976 10977 10976 10976 10976 10977 10978 10978 10979 10979 10979 10980 10979 10979 10980 10980 10979 10980 10980 10979 10978 10977 10977 10977 10977 10975 10973 10972 10972 10971 10969 10967 10965 10963 10960 10958 10957 10955 10953 10951 10949 10947 10945 10943 10941 10939 10937 10936 10933 10931 10928 10926 10924 10921 10919 10917 10914 10911 10909 10907 10905 10904 10904 10904 10903 10902 10900 10897 10895 10893 10891 10888 10885
10958 10959 10961 10963 10963 10964 10964 10966 10968 10969 10971 10972 10973 10973 10973 10973 10974 10974 10975 10975 10975 10975 10976 10976 10976 10976 10976 10976 10976 10976 10976 10975 10975 10974 10974 10974 10973 10972 10969 10968 10967 10967 10965 10964 10962 10959 10957 10955 10953 10951 10949 10947 10945 10942 10940 10939 10937 10935 10933 10931 10929 10927 10924 10922 10920 10917 10914 10912 10910 10907 10904 10902 10901 10900 10900 10899 10899 10898 10896 10894 10891 10889 10887 10884 10882
10952 10954 10957 10959 10959 10959 10961 10963 10965 10966 10968 10969 10969 10970 10970 10971 10971 10971 10971 10971 10971 10972 10972 10972 10972 10972 10972 10972 10972 10972 10972 10971 10971 10970 10970 10970 10969 10968 10966 10964 10963 10962 10961 10960 10958 10955 10953 10951 10949 10946 10945 10943 10941 10938 10936 10934 10932 10930 10929 10927 10925 10922 10919 10917 10915 10912 10910 10907 10905 10903 10901 10899 10897 10896 10895 10895 10894 10893 10892 10890 10888 10885 10883 10880 10877
10949 10950 10952 10954 10955 10956 10959 10961 10962 10963 10964 10965 10965 10966 10967 10968 10968 10968 10968 10968 10968 10968 10968 10969 10968 10968 10969 10969 10968 10968 10968 10967 10967 10966 10966 10966 10965 10964 10963 10961 10959 10958 10956 10955 10953 10951 10949 10947 10944 10941 10940 10938 10936 10933 10930 10928 10927 10925 10924 10923 10920 10917 10915 10913 10910 10908 10905 10903 10901 10900 10898 10896 10894 10892 10891 10891 10890 10889 10887 10886 10884 10882 10879 10876 10872
10946 10947 10948 10950 10951 10953 10955 10957 10958 10959 10960 10960 10961 10962 10963 10963 10964 10964 10965 10965 10965 10965 10965 10965 10965 10965 10965 10965 10964 10964 10963 10963 10963 10962 10962 10962 10961 10960 10959 10958 10956 10954 10951 10950 10948 10946 10945 10942 10940 10937 10935 10933 10931 10928 10925 10923 10922 10920 10919 10918 10915 10912 10910 10908 10906 10904 10901 10899 10898 10896 10895 10893 10891 10889 10888 10887 10886 10885 10884 10882 10880 10878 10876 10873 10869
10942 10943 10945 10946 10948 10949 10951 10952 10953 10954 10955 10956 10957 10957 10958 10959 10959 10960 10960 10961 10962 10962 10961 10961 10961 10961 10961 10960 10960 10959 10959 10959 10959 10958 10958 10957 10957 10956 10954 10953 10951 10949 10947 10945 10942 10941 10939 10937 10934 10932 10929 10927 10926 10923 10920 10917 10916 10915 10914 10911 10908 10906 10905 10902 10901 10899 10897 10895 10893 10892 10891 10889 10888 10886 10885 10884 10883 10882 10880 10878 10876 10874 10872 10870 10867
10937 10939 10941 10943 10944 10945 10946 10948 10949 10949 10950 10951 10952 10953 10954 10954 10955 10955 10956 10957 10957 10957 10956 10957 10957 10957 10956 10956 10956 10955 10954 10954 10954 10954 10953 10952 10952 10951 10949 10948 10946 10944 10942 10939 10937 10935 10933 10931 10928 10926 10923 10921 10919 10918 10916 10912 10910 10909 10908 10905 10902 10900 10899 10897 10895 10894 10892 10890 10889 10888 10886 10885 10884 10883 10882 10881 10880 10878 10877 10875 10872 10870 10868 10866 10864
10933 10934 10936 10938 10939 10940 10942 10944 10944 10944 10945 10947 10948 10949 10950 10950 10950 10951 10952 10952 10952 10952 10952 10952 10952 10952 10951 10951 10951 10951 10950 10949 10948 10948 10948 10948 10947 10946 10944 10942 10939 10937 10935 10933 10931 10929 10926 10924 10922 10919 10917 10915 10913 10911 10910 10907 10905 10903 10901 10899 10896 10894 10893 10891 10890 10889 10887 10885 10884 10883 10882 10881 10880 10878 10877 10877 10876 10874 10873 10871 10869 10866 10864 10861 10859
10928 10930 10931 10932 10933 10934 10937 10938 10939 10939 10941 10942 10943 10944 10945 10945 10946 10947 10947 10948 10947 10947 10947 10947 10947 10947 10946 10946 10946 10945 10944 10943 10943 10942 10942 10941 10941 10941 10939 10936 10933 10930 10928 10926 10924 10922 10919 10917 10915 10912 10911 10909 10906 10905 10903 10900 10899 10898 10896 10892 10890 10888 10887 10885 10884 10884 10882 10880 10879 10878 10877 10876 10875 10874 10873 10872 10871 10871 10869 10867 10864 10862 10859 10856 10853
10923 10925 10926 10927 10927 10929 10931 10933 10934 10935 10937 10938 10938 10939 10939 10940 10940 10941 10942 10943 10942 10942 10942 10941 10941 10941 10941 10940 10939 10939 10938 10938 10937 10936 10935 10934 10934 10933 10932 10931 10928 10924 10921 10919 10917 10915 10912 10911 10909 10907 10904 10902 10900 10897 10896 10893 10892 10892 10891 10887 10884 10882 10881 10880 10878 10878 10877 10875 10874 10873 10872 10871 10870 10869 10868 10868 10867 10866 10865 10863 10860 10857 10854 10851 10848
10919 10920 10921 10922 10923 10924 10926 10928 10929 10930 10931 10932 10932 10932 10933 10934 10935 10936 10937 10937 10936 10936 10935 10935 10935 10935 10935 10934 10933 10933 10932 10932 10930 10928 10927 10927 10927 10926 10925 10924 10922 10918 10914 10912 10910 10909 10907 10905 10903 10901 10898 10896 10894 10890 10888 10888 10886 10885 10884 10883 10880 10877 10876 10874 10873 10872 10871 10869 10869 10869 10868 10866 10865 10864 10863 10863 10862 10861 10860 10858 10856 10853 10850 10846 10842
10914 10915 10916 10917 10918 10920 10922 10923 10924 10924 10925 10925 10925 10926 10927 10928 10929 10930 10930 10930 10929 10929 10929 10929 10929 10928 10927 10927 10926 10926 10925 10925 10923 10920 10919 10918 10919 10919 10918 10917 10915 10912 10908 10906 10904 10903 10901 10899 10897 10895 10892 10890 10888 10884 10882 10882 10881 10880 10879 10877 10875 10873 10871 10869 10868 10867 10867 10865 10864 10863 10863 10862 10861 10860 10859 10858 10857 10857 10855 10853 10851 10848 10845 10842 10838
10908 10910 10911 10913 10914 10915 10916 10917 10917 10918 10918 10918 10918 10920 10921 10923 10923 10923 10922 10922 10922 10922 10922 10922 10922 10921 10920 10919 10919 10918 10918 10917 10915 10913 10911 10910 10910 10911 10910 10909 10908 10906 10903 10901 10899 10897 10895 10893 10891 10890 10887 10884 10882 10880 10877 10876 10876 10875 10874 10872 10870 10868 10866 10865 10864 10862 10861 10862 10861 10859 10858 10858 10857 10856 10854 10853 10852 10851 10850 10848 10846 10844 10840 10837 10833
10903 10904 10906 10907 10908 10909 10910 10910 10911 10911 10911 10912 10913 10914 10915 10915 10915 10915 10915 10915 10915 10915 10915 10915 10914 10913 10913 10912 10912 10911 10910 10910 10909 10906 10904 10903 10902 10901 10902 10902 10901 10899 10898 10896 10894 10891 10889 10887 10885 10883 10881 10879 10877 10875 10872 10870 10870 10870 10869 10868 10865 10862 10861 10861 10861 10859 10856 10856 10857 10856 10854 10853 10852 10851 10850 10848 10846 10845 10844 10842 10840 10838 10835 10832 10829
10897 10899 10900 10901 10902 10902 10903 10904 10905 10905 10905 10906 10907 10907 10908 10908 10909 10909 10909 10909 10909 10909 10908 10908 10908 10906 10906 10906 10906 10906 10905 10905 10904 10901 10898 10897 10895 10893 10894 10894 10892 10891 10891 10890 10889 10887 10885 10883 10880 10877 10875 10874 10872 10871 10868 10865 10865 10865 10865 10863 10860 10857 10857 10857 10857 10856 10853 10850 10850 10851 10850 10848 10847 10846 10845 10843 10841 10840 10838 10836 10834 10832 10829 10826 10824
10891 10892 10893 10895 10896 10897 10898 10898 10899 10899 10900 10900 10901 10901 10902 10903 10904 10904 10904 10904 10904 10904 10903 10903 10902 10901 10900 10900 10900 10900 10900 10900 10899 10896 10893 10891 10889 10888 10887 10887 10885 10884 10884 10884 10883 10882 10880 10878 10876 10873 10871 10868 10866 10865 10864 10861 10860 10861 10861 10859 10857 10855 10854 10854 10853 10853 10851 10846 10844 10845 10845 10844 10842 10841 10840 10838 10836 10835 10833 10830 10827 10826 10823 10820 10818
10886 10887 10888 10889 10890 10891 10892 10893 10893 10894 10894 10895 10895 10896 10897 10898 10899 10899 10899 10899 10899 10899 10898 10898 10897 10897 10896 10895 10895 10894 10894 10893 10893 10890 10886 10884 10883 10882 10881 10880 10878 10877 10878 10878 10877 10875 10874 10872 10871 10869 10866 10863 10860 10859 10859 10858 10857 10857 10856 10855 10854 10853 10851 10850 10849 10849 10848 10844 10841 10840 10840 10839 10838 10836 10835 10833 10831 10829 10827 10825 10821 10819 10817 10814 10811
10881 10882 10883 10884 10885 10885 10886 10887 10888 10889 10889 10889 10890 10891 10891 10892 10894 10894 10894 10894 10893 10893 10893 10893 10892 10892 10891 10890 10890 10889 10888 10887 10886 10884 10880 10877 10876 10875 10874 10873 10871 10870 10871 10871 10870 10869 10868 10866 10865 10863 10861 10859 10856 10854 10854 10855 10854 10853 10851 10850 10850 10849 10847 10846 10845 10844 10844 10842 10839 10836 10835 10834 10833 10831 10830 10829 10827 10824 10821 10819 10816 10812 10811 10808 10804
10876 10877 10878 10878 10879 10880 10881 10881 10882 10883 10883 10884 10885 10885 10886 10887 10888 10888 10888 10888 10888 10888 10888 10887 10887 10887 10886 10885 10884 10883 10883 10881 10880 10878 10875 10872 10870 10869 10868 10866 10864 10863 10862 10862 10860 10860 10860 10859 10859 10858 10856 10853 10851 10849 10849 10850 10849 10848 10847 10846 10844 10843 10842 10841 10840 10839 10839 10838 10836 10833 10831 10830 10828 10826 10825 10824 10824 10821 10817 10814 10811 10807 10804 10802 10798
10871 10871 10872 10873 10874 10875 10876 10876 10877 10877 10878 10879 10880 10880 10880 10881 10882 10883 10883 10883 10883 10883 10883 10882 10882 10882 10881 10880 10879 10878 10877 10875 10873 10872 10870 10867 10865 10864 10862 10860 10858 10856 10856 10854 10851 10851 10851 10851 10852 10853 10852 10849 10846 10843 10842 10842 10842 10842 10842 10841 10839 10837 10836 10836 10835 10834 10833 10832 10832 10829 10827 10825 10823 10821 10819 10818 10818 10817 10813 10810 10807 10804 10800 10796 10793
10865 10866 10867 10868 10868 10869 10870 10871 10871 10872 10872 10873 10874 10875 10876 10876 10876 10877 10877 10877 10877 10877 10877 10877 10876 10876 10875 10874 10873 10871 10870 10869 10867 10865 10864 10863 10860 10858 10856 10854 10852 10850 10849 10847 10844 10842 10842 10843 10844 10846 10846 10844 10841 10837 10834 10834 10834 10834 10835 10834 10834 10833 10831 10830 10831 10830 10828 10827 10826 10824 10822 10820 10818 10816 10814 10813 10812 10811 10808 10806 10803 10800 10796 10792 10788
10860 10861 10862 10863 10863 10864 10865 10865 10865 10866 10867 10868 10869 10869 10870 10870 10870 10870 10871 10871 10871 10871 10871 10871 10870 10870 10869 10868 10866 10865 10863 10862 10859 10858 10858 10858 10856 10852 10850 10848 10846 10843 10842 10840 10836 10834 10834 10835 10835 10837 10837 10835 10833 10830 10826 10825 10826 10827 10828 10828 10829 10828 10826 10825 10826 10827 10825 10822 10820 10819 10816 10815 10813 10811 10809 10807 10807 10806 10803 10801 10799 10796 10792 10788 10785
10855 10856 10857 10857 10858 10858 10859 10859 10859 10860 10861 10862 10863 10864 10864 10864 10864 10865 10865 10865 10864 10864 10864 10864 10864 10863 10862 10861 10860 10858 10856 10854 10852 10851 10852 10853 10851 10848 10846 10843 10841 10839 10836 10832 10828 10827 10828 10828 10828 10828 10827 10826 10825 10823 10819 10816 10815 10815 10818 10821 10822 10821 10820 10819 10820 10820 10819 10817 10815 10813 10811 10810 10808 10806 10803 10802 10801 10801 10799 10796 10794 10792 10788 10784 10781
10849 10850 10851 10851 10852 10852 10853 10853 10853 10854 10855 10856 10857 10857 10858 10858 10858 10858 10858 10858 10858 10858 10858 10858 10857 10856 10854 10853 10852 10852 10850 10847 10845 10845 10846 10846 10845 10843 10841 10839 10836 10834 10831 10826 10821 10821 10822 10822 10821 10819 10817 10816 10817 10817 10814 10810 10806 10805 10807 10811 10813 10814 10813 10812 10812 10812 10811 10810 10808 10806 10805 10805 10804 10802 10799 10797 10796 10796 10794 10791 10789 10788 10784 10780 10777
10842 10843 10844 10845 10845 10846 10846 10846 10847 10848 10849 10849 10850 10850 10851 10851 10851 10851 10851 10851 10851 10852 10851 10851 10850 10849 10847 10845 10845 10845 10843 10841 10838 10838 10838 10837 10836 10835 10834 10833 10831 10828 10824 10818 10814 10815 10816 10816 10814 10811 10809 10809 10810 10811 10810 10808 10804 10803 10803 10804 10807 10808 10808 10807 10806 10805 10805 10804 10802 10801 10802 10802 10800 10797 10794 10792 10790 10790 10789 10786 10784 10782 10779 10775 10772
10835 10836 10836 10837 10838 10838 10839 10840 10840 10841 10842 10843 10843 10843 10844 10844 10843 10844 10844 10844 10844 10844 10844 10843 10842 10841 10840 10838 10837 10836 10836 10835 10832 10831 10830 10829 10828 10826 10825 10824 10824 10821 10816 10812 10810 10810 10809 10807 10807 10806 10804 10803 10803 10803 10803 10803 10802 10802 10801 10800 10801 10802 10803 10802 10800 10798 10798 10797 10795 10795 10797 10796 10793 10791 10789 10786 10785 10785 10783 10780 10778 10776 10774 10770 10767
10827 10827 10828 10829 10830 10830 10831 10831 10832 10833 10834 10834 10834 10835 10835 10835 10835 10835 10836 10836 10836 10836 10835 10834 10834 10833 10832 10831 10829 10828 10828 10827 10826 10824 10823 10822 10821 10818 10816 10815 10814 10813 10810 10807 10806 10806 10803 10800 10800 10800 10798 10797 10796 10794 10795 10798 10800 10800 10799 10796 10794 10795 10796 10796 10794 10792 10791 10789 10787 10787 10788 10787 10786 10784 10783 10781 10780 10779 10776 10774 10772 10770 10768 10765 10762
10818 10819 10820 10820 10821 10822 10822 10823 10824 10824 10825 10825 10826 10826 10826 10826 10826 10826 10827 10827 10827 10827 10826 10825 10825 10824 10823 10823 10822 10821 10820 10819 10818 10816 10815 10814 10814 10812 10810 10807 10805 10803 10803 10802 10800 10798 10797 10795 10793 10792 10791 10791 10790 10789 10791 10793 10795 10796 10796 10793 10790 10790 10790 10789 10787 10785 10783 10782 10781 10781 10781 10779 10777 10777 10777 10775 10774 10772 10770 10768 10765 10763 10761 10759 10756
10810 10811 10811 10812 10813 10814 10814 10815 10815 10815 10816 10816 10817 10817 10817 10817 10817 10817 10817 10817 10817 10817 10816 10816 10816 10815 10815 10815 10815 10814 10813 10811 10810 10808 10807 10806 10806 10804 10802 10800 10796 10794 10795 10794 10791 10789 10788 10787 10785 10784 10783 10783 10783 10783 10783 10781 10781 10785 10789 10789 10787 10785 10783 10782 10781 10779 10778 10778 10777 10776 10774 10772 10770 10770 10771 10770 10768 10765 10763 10761 10758 10756 10754 10752 10751
10803 10804 10804 10804 10805 10805 10806 10806 10807 10807 10807 10807 10807 10807 10808 10808 10808 10807 10808 10807 10807 10807 10807 10806 10806 10806 10806 10806 10806 10806 10805 10803 10801 10800 10798 10798 10797 10795 10793 10791 10788 10786 10787 10786 10783 10780 10779 10778 10776 10776 10776 10777 10777 10776 10774 10771 10771 10775 10781 10783 10784 10783 10781 10780 10780 10778 10775 10774 10772 10770 10769 10767 10765 10764 10765 10764 10762 10759 10757 10754 10752 10750 10748 10746 10745
10795 10796 10796 10797 10797 10797 10798 10798 10798 10798 10798 10798 10798 10798 10798 10799 10799 10798 10798 10798 10797 10798 10798 10798 10798 10797 10797 10797 10796 10796 10796 10794 10792 10791 10790 10790 10789 10786 10784 10783 10780 10778 10779 10779 10776 10772 10770 10769 10768 10769 10771 10772 10773 10771 10768 10766 10769 10774 10777 10779 10780 10779 10778 10778 10777 10773 10770 10769 10767 10765 10764 10762 10760 10759 10758 10757 10755 10753 10750 10749 10748 10745 10742 10741 10740
10787 10788 10788 10789 10789 10789 10789 10789 10789 10789 10788 10788 10789 10789 10789 10789 10789 10789 10789 10788 10788 10789 10790 10790 10790 10789 10788 10787 10786 10786 10786 10785 10783 10782 10782 10781 10780 10777 10775 10775 10773 10772 10772 10772 10769 10765 10763 10762 10761 10763 10765 10767 10767 10764 10761 10761 10766 10773 10775 10776 10776 10775 10773 10772 10769 10766 10764 10763 10761 10759 10758 10756 10754 10753 10752 10750 10747 10745 10744 10744 10742 10739 10736 10735 10734
10778 10779 10779 10780 10780 10780 10780 10779 10779 10779 10778 10779 10779 10780 10780 10780 10780 10779 10779 10779 10779 10780 10781 10782 10781 10780 10779 10778 10777 10777 10777 10776 10775 10774 10773 10773 10771 10768 10765 10764 10765 10764 10764 10764 10760 10757 10757 10758 10756 10757 10760 10761 10760 10758 10755 10755 10759 10764 10767 10768 10769 10768 10766 10764 10762 10759 10757 10756 10755 10753 10751 10749 10748 10747 10745 10742 10740 10739 10738 10737 10736 10734 10731 10729 10728
10769 10770 10770 10770 10770 10770 10770 10769 10769 10768 10768 10769 10770 10770 10770 10770 10770 10769 10769 10769 10769 10770 10772 10773 10773 10771 10770 10769 10769 10769 10769 10768 10766 10765 10765 10764 10763 10759 10755 10754 10754 10756 10756 10756 10753 10751 10751 10752 10752 10752 10754 10754 10752 10751 10750 10748 10749 10751 10753 10756 10759 10759 10757 10755 10753 10751 10749 10749 10748 10747 10744 10742 10740 10739 10737 10735 10734 10733 10732 10730 10729 10728 10725 10722 10720
10759 10759 10759 10760 10760 10760 10760 10759 10758 10757 10758 10759 10760 10760 10760 10760 10760 10760 10759 10759 10759 10760 10762 10763 10763 10763 10761 10761 10761 10760 10760 10759 10758 10756 10755 10754 10753 10750 10747 10744 10744 10745 10747 10748 10747 10745 10745 10746 10746 10746 10748 10748 10747 10746 10746 10744 10742 10741 10742 10746 10749 10749 10746 10743 10742 10742 10743 10742 10740 10738 10736 10735 10733 10731 10729 10728 10727 10726 10725 10723 10722 10721 10718 10714 10712
10749 10749 10750 10750 10750 10749 10748 10747 10746 10747 10749 10750 10750 10750 10750 10750 10750 10749 10749 10749 10750 10751 10752 10753 10754 10754 10753 10753 10752 10751 10751 10751 10749 10748 10746 10744 10743 10741 10738 10736 10734 10734 10736 10739 10739 10738 10739 10741 10740 10740 10742 10744 10743 10742 10741 10741 10740 10739 10739 10741 10741 10739 10735 10733 10734 10735 10736 10734 10732 10731 10730 10728 10726 10724 10723 10722 10720 10719 10718 10716 10714 10713 10711 10708 10704
10740 10740 10741 10740 10739 10738 10736 10735 10736 10738 10739 10740 10740 10740 10741 10740 10740 10740 10739 10740 10740 10741 10742 10743 10744 10744 10744 10744 10743 10743 10742 10742 10741 10740 10738 10735 10734 10732 10730 10727 10725 10724 10726 10730 10730 10730 10732 10734 10734 10735 10737 10738 10737 10737 10738 10738 10738 10736 10735 10736 10735 10731 10728 10727 10728 10728 10727 10725 10724 10723 10723 10721 10719 10717 10716 10714 10713 10712 10711 10709 10707 10705 10703 10700 10697
10731 10731 10730 10729 10727 10726 10725 10725 10726 10728 10729 10730 10730 10730 10730 10730 10730 10730 10729 10730 10731 10731 10732 10733 10733 10733 10733 10734 10734 10733 10733 10733 10732 10731 10729 10727 10724 10723 10721 10719 10716 10715 10718 10721 10721 10721 10722 10725 10727 10728 10729 10728 10727 10729 10733 10736 10737 10733 10729 10727 10725 10722 10719 10719 10719 10718 10718 10716 10715 10715 10714 10713 10711 10710 10708 10707 10706 10705 10704 10702 10699 10697 10695 10693 10690
10721 10720 10719 10717 10716 10715 10716 10717 10718 10718 10719 10719 10720 10720 10720 10720 10720 10719 10719 10720 10721 10721 10721 10722 10722 10722 10722 10723 10723 10723 10723 10723 10722 10721 10720 10718 10716 10714 10712 10710 10709 10708 10709 10711 10712 10712 10713 10716 10718 10720 10720 10719 10717 10718 10721 10725 10726 10722 10718 10715 10714 10712 10711 10710 10710 10710 10709 10708 10707 10707 10706 10704 10703 10703 10701 10700 10699 10698 10696 10693 10691 10689 10687 10685 10682
10710 10709 10708 10707 10706 10705 10707 10708 10709 10709 10710 10710 10710 10711 10711 10710 10709 10709 10710 10710 10710 10711 10711 10711 10710 10711 10711 10711 10711 10712 10712 10712 10711 10710 10709 10708 10707 10704 10703 10702 10701 10700 10700 10702 10703 10703 10704 10705 10708 10711 10712 10712 10710 10708 10708 10710 10710 10707 10705 10704 10704 10703 10703 10702 10701 10701 10701 10700 10699 10698 10697 10696 10696 10695 10693 10691 10690 10689 10687 10684 10682 10680 10679 10677 10675
10698 10698 10697 10697 10696 10697 10698 10699 10699 10699 10700 10700 10700 10700 10700 10700 10699 10700 10701 10701 10700 10700 10700 10700 10699 10699 10699 10699 10699 10700 10701 10701 10701 10699 10698 10698 10697 10695 10693 10692 10692 10691 10691 10692 10693 10694 10695 10695 10696 10699 10701 10702 10702 10700 10699 10699 10698 10696 10695 10695 10695 10695 10694 10693 10692 10692 10692 10691 10690 10689 10688 10688 10688 10687 10684 10682 10681 10680 10678 10675 10673 10672 10671 10669 10666
10687 10687 10686 10686 10686 10687 10688 10689 10689 10689 10689 10689 10689 10689 10689 10689 10689 10690 10690 10691 10691 10690 10690 10689 10689 10688 10688 10687 10688 10689 10690 10690 10690 10689 10688 10688 10687 10686 10684 10683 10683 10683 10683 10682 10683 10684 10686 10686 10687 10688 10689 10690 10691 10690 10690 10689 10689 10687 10687 10687 10687 10686 10685 10684 10684 10683 10683 10682 10681 10681 10679 10679 10679 10677 10674 10673 10672 10671 10669 10667 10665 10664 10662 10660 10657
10676 10676 10675 10676 10676 10677 10677 10677 10677 10677 10678 10678 10677 10677 10677 10677 10678 10678 10679 10680 10680 10679 10679 10679 10679 10678 10678 10677 10677 10678 10679 10679 10679 10679 10679 10678 10677 10676 10675 10674 10674 10674 10674 10673 10673 10675 10677 10678 10679 10679 10678 10678 10679 10680 10679 10678 10678 10677 10677 10677 10678 10677 10676 10675 10674 10674 10673 10673 10673 10672 10670 10670 10669 10668 10665 10664 10663 10661 10660 10658 10657 10655 10653 10651 10649
10666 10666 10666 10666 10667 10667 10666 10666 10665 10665 10665 10665 10665 10665 10665 10665 10666 10667 10667 10668 10668 10668 10668 10668 10668 10668 10668 10667 10667 10668 10668 10668 10669 10669 10669 10668 10667 10667 10666 10665 10664 10664 10664 10664 10665 10666 10667 10669 10670 10670 10668 10667 10669 10669 10668 10667 10667 10666 10666 10667 10667 10667 10666 10665 10665 10664 10664 10664 10663 10663 10662 10661 10660 10658 10656 10655 10654 10652 10651 10649 10647 10645 10643 10642 10640
10656 10656 10656 10657 10657 10656 10656 10655 10654 10653 10653 10653 10653 10653 10653 10653 10654 10654 10655 10655 10656 10656 10656 10656 10657 10657 10657 10657 10657 10657 10656 10657 10657 10657 10658 10658 10658 10658 10657 10655 10654 10654 10655 10655 10655 10656 10657 10658 10660 10660 10659 10658 10658 10658 10658 10657 10657 10656 10655 10655 10655 10656 10656 10655 10655 10655 10655 10654 10654 10653 10652 10651 10650 10648 10647 10646 10645 10643 10641 10640 10638 10635 10634 10632 10631
10645 10646 10646 10647 10647 10646 10645 10644 10643 10643 10643 10642 10641 10641 10642 10642 10643 10643 10643 10643 10643 10643 10644 10644 10645 10645 10645 10646 10646 10645 10645 10645 10645 10645 10645 10647 10648 10647 10647 10646 10645 10645 10645 10645 10645 10645 10646 10646 10648 10649 10649 10649 10647 10646 10646 10646 10646 10645 10644 10644 10644 10644 10645 10645 10645 10644 10644 10643 10643 10642 10641 10640 10639 10638 10637 10636 10635 10633 10631 10629 10628 10626 10624 10623 10621